Time,TemperatureF,DewpointF,PressureIn,WindDirection,WindDirectionDegrees,WindSpeedMPH,WindSpeedGustMPH,Humidity,HourlyPrecipIn,Conditions,Clouds,dailyrainin,SoftwareType,DateUTC
2013-08-13 00:11:00,76.9,75.0,30.00,South,177,0.0,0.0,93,0.00,,,0.00,weatherlink.com 1.10,2013-08-13 05:11:00,
2013-08-13 00:26:00,77.0,75.0,30.00,South,178,0.0,0.0,93,0.00,,,0.00,weatherlink.com 1.10,2013-08-13 05:26:00,
2013-08-13 00:41:00,77.4,76.0,30.00,South,178,0.0,1.0,94,0.00,,,0.00,weatherlink.com 1.10,2013-08-13 05:41:00,
2013-08-13 00:56:00,77.3,76.0,30.00,South,177,0.0,1.0,94,0.00,,,0.00,weatherlink.com 1.10,2013-08-13 05:56:00,
2013-08-13 01:11:00,77.6,76.0,30.00,SSE,158,0.0,1.0,94,0.00,,,0.00,weatherlink.com 1.10,2013-08-13 06:11:00,
2013-08-13 01:26:00,77.2,75.0,29.99,SSE,158,0.0,0.0,94,0.00,,,0.00,weatherlink.com 1.10,2013-08-13 06:26:00,
2013-08-13 01:41:00,76.8,75.0,29.99,SSE,158,0.0,0.0,94,0.00,,,0.00,weatherlink.com 1.10,2013-08-13 06:41:00,
2013-08-13 01:56:00,76.2,74.0,29.99,SSE,158,0.0,0.0,94,0.00,,,0.00,weatherlink.com 1.10,2013-08-13 06:56:00,
2013-08-13 02:11:00,76.1,74.0,29.99,SSE,158,0.0,0.0,94,0.00,,,0.00,weatherlink.com 1.10,2013-08-13 07:11:00,
2013-08-13 02:26:00,75.9,74.0,29.98,SSE,158,0.0,0.0,94,0.00,,,0.00,weatherlink.com 1.10,2013-08-13 07:26:00,
2013-08-13 02:41:00,75.7,74.0,29.98,SSE,158,0.0,0.0,94,0.00,,,0.00,weatherlink.com 1.10,2013-08-13 07:41:00,
2013-08-13 02:56:00,75.8,74.0,29.98,SSE,158,0.0,1.0,95,0.00,,,0.00,weatherlink.com 1.10,2013-08-13 07:56:00,
2013-08-13 03:11:00,75.6,74.0,29.98,SSE,158,0.0,0.0,95,0.00,,,0.00,weatherlink.com 1.10,2013-08-13 08:11:00,
2013-08-13 03:26:00,75.8,74.0,29.97,SSE,158,0.0,0.0,95,0.00,,,0.00,weatherlink.com 1.10,2013-08-13 08:26:00,
2013-08-13 03:41:00,76.3,75.0,29.98,SSE,158,0.0,1.0,95,0.00,,,0.00,weatherlink.com 1.10,2013-08-13 08:41:00,
2013-08-13 03:56:00,76.1,75.0,29.98,SSE,158,0.0,0.0,95,0.00,,,0.00,weatherlink.com 1.10,2013-08-13 08:56:00,
2013-08-13 04:12:00,75.8,74.0,29.98,SSE,158,0.0,0.0,95,0.00,,,0.00,weatherlink.com 1.10,2013-08-13 09:12:00,
2013-08-13 04:27:00,75.6,74.0,29.98,SSE,158,0.0,0.0,95,0.00,,,0.00,weatherlink.com 1.10,2013-08-13 09:27:00,
2013-08-13 04:42:00,75.5,74.0,29.98,SSE,158,0.0,0.0,95,0.00,,,0.00,weatherlink.com 1.10,2013-08-13 09:42:00,
2013-08-13 04:57:00,75.5,74.0,29.98,SSE,158,0.0,0.0,95,0.00,,,0.00,weatherlink.com 1.10,2013-08-13 09:57:00,
2013-08-13 05:12:00,76.0,75.0,29.97,SSE,158,0.0,1.0,96,0.00,,,0.00,weatherlink.com 1.10,2013-08-13 10:12:00,
2013-08-13 05:27:00,75.9,74.0,29.98,SSE,158,0.0,0.0,95,0.00,,,0.00,weatherlink.com 1.10,2013-08-13 10:27:00,
2013-08-13 05:42:00,75.5,74.0,29.98,SSE,158,0.0,0.0,95,0.00,,,0.00,weatherlink.com 1.10,2013-08-13 10:42:00,
2013-08-13 05:57:00,75.3,74.0,29.98,SSE,158,0.0,0.0,95,0.00,,,0.00,weatherlink.com 1.10,2013-08-13 10:57:00,
2013-08-13 06:12:00,75.7,75.0,29.98,SSE,158,0.0,0.0,96,0.00,,,0.00,weatherlink.com 1.10,2013-08-13 11:12:00,
2013-08-13 06:27:00,76.9,76.0,29.99,SSE,158,0.0,0.0,96,0.00,,,0.00,weatherlink.com 1.10,2013-08-13 11:27:00,
2013-08-13 06:42:00,77.2,76.0,29.98,SSE,158,0.0,0.0,96,0.00,,,0.00,weatherlink.com 1.10,2013-08-13 11:42:00,
2013-08-13 06:57:00,77.3,76.0,29.99,SSE,158,0.0,0.0,96,0.00,,,0.00,weatherlink.com 1.10,2013-08-13 11:57:00,
2013-08-13 07:12:00,77.6,76.0,29.99,SSE,158,0.0,0.0,96,0.00,,,0.00,weatherlink.com 1.10,2013-08-13 12:12:00,
2013-08-13 07:27:00,78.8,78.0,30.00,SSE,158,0.0,0.0,96,0.00,,,0.00,weatherlink.com 1.10,2013-08-13 12:27:00,
2013-08-13 07:42:00,78.9,78.0,30.00,SSE,158,0.0,0.0,96,0.00,,,0.00,weatherlink.com 1.10,2013-08-13 12:42:00,
2013-08-13 07:57:00,80.3,79.0,30.00,NW,311,0.0,3.0,95,0.00,,,0.00,weatherlink.com 1.10,2013-08-13 12:57:00,
2013-08-13 08:12:00,82.0,79.0,30.01,WNW,283,1.0,2.0,91,0.00,,,0.00,weatherlink.com 1.10,2013-08-13 13:12:00,
2013-08-13 08:27:00,83.2,79.0,30.02,WNW,300,1.0,3.0,88,0.00,,,0.00,weatherlink.com 1.10,2013-08-13 13:27:00,
2013-08-13 08:42:00,84.3,79.0,30.02,WNW,294,1.0,4.0,85,0.00,,,0.00,weatherlink.com 1.10,2013-08-13 13:42:00,
2013-08-13 08:57:00,84.7,79.0,30.02,West,278,4.0,6.0,84,0.00,,,0.00,weatherlink.com 1.10,2013-08-13 13:57:00,
2013-08-13 09:12:00,84.8,80.0,30.02,WNW,287,2.0,5.0,84,0.00,,,0.00,weatherlink.com 1.10,2013-08-13 14:12:00,
2013-08-13 09:27:00,85.7,80.0,30.02,WNW,287,1.0,7.0,82,0.00,,,0.00,weatherlink.com 1.10,2013-08-13 14:27:00,
2013-08-13 09:42:00,85.8,79.0,30.02,NW,311,6.0,7.0,81,0.00,,,0.00,weatherlink.com 1.10,2013-08-13 14:42:00,
2013-08-13 09:57:00,86.6,79.0,30.02,NW,314,2.0,12.0,78,0.00,,,0.00,weatherlink.com 1.10,2013-08-13 14:57:00,
2013-08-13 10:12:00,86.4,79.0,30.02,WNW,284,3.0,8.0,78,0.00,,,0.00,weatherlink.com 1.10,2013-08-13 15:12:00,
2013-08-13 10:27:00,88.8,80.0,30.02,West,277,0.0,5.0,75,0.00,,,0.00,weatherlink.com 1.10,2013-08-13 15:27:00,
2013-08-13 10:42:00,89.0,79.0,30.02,NNW,342,1.0,6.0,72,0.00,,,0.00,weatherlink.com 1.10,2013-08-13 15:42:00,
2013-08-13 10:57:00,89.1,78.0,30.02,NW,314,0.0,7.0,70,0.00,,,0.00,weatherlink.com 1.10,2013-08-13 15:57:00,
2013-08-13 11:12:00,90.3,77.0,30.02,NNW,338,3.0,10.0,64,0.00,,,0.00,weatherlink.com 1.10,2013-08-13 16:12:00,
2013-08-13 11:27:00,92.3,78.0,30.02,NW,307,3.0,5.0,63,0.00,,,0.00,weatherlink.com 1.10,2013-08-13 16:27:00,
2013-08-13 11:42:00,92.1,77.0,30.02,WNW,288,4.0,8.0,61,0.00,,,0.00,weatherlink.com 1.10,2013-08-13 16:42:00,
2013-08-13 11:57:00,92.0,78.0,30.01,NW,304,6.0,11.0,64,0.00,,,0.00,weatherlink.com 1.10,2013-08-13 16:57:00,
2013-08-13 12:13:00,92.8,77.0,30.00,WSW,256,4.0,10.0,61,0.00,,,0.00,weatherlink.com 1.10,2013-08-13 17:13:00,
2013-08-13 12:28:00,92.6,77.0,30.00,WNW,286,4.0,7.0,61,0.00,,,0.00,weatherlink.com 1.10,2013-08-13 17:28:00,
2013-08-13 12:43:00,93.0,77.0,30.00,NW,306,2.0,9.0,59,0.00,,,0.00,weatherlink.com 1.10,2013-08-13 17:43:00,
2013-08-13 12:58:00,93.1,77.0,29.99,NW,313,4.0,11.0,59,0.00,,,0.00,weatherlink.com 1.10,2013-08-13 17:58:00,
2013-08-13 13:13:00,93.5,78.0,29.99,West,277,2.0,9.0,60,0.00,,,0.00,weatherlink.com 1.10,2013-08-13 18:13:00,
2013-08-13 13:28:00,94.1,76.0,29.98,NW,320,8.0,11.0,55,0.00,,,0.00,weatherlink.com 1.10,2013-08-13 18:28:00,
2013-08-13 13:43:00,94.3,76.0,29.97,NW,318,4.0,9.0,56,0.00,,,0.00,weatherlink.com 1.10,2013-08-13 18:43:00,
2013-08-13 14:28:00,94.8,75.0,29.94,South,188,5.0,12.0,53,0.00,,,0.00,weatherlink.com 1.10,2013-08-13 19:28:00,
2013-08-13 14:43:00,95.5,76.0,29.93,WNW,284,4.0,7.0,54,0.00,,,0.00,weatherlink.com 1.10,2013-08-13 19:43:00,
2013-08-13 14:58:00,94.6,76.0,29.93,WNW,300,2.0,11.0,55,0.00,,,0.00,weatherlink.com 1.10,2013-08-13 19:58:00,
2013-08-13 15:13:00,94.9,75.0,29.92,WNW,297,5.0,10.0,52,0.00,,,0.00,weatherlink.com 1.10,2013-08-13 20:13:00,
2013-08-13 15:28:00,95.9,76.0,29.91,South,178,2.0,11.0,53,0.00,,,0.00,weatherlink.com 1.10,2013-08-13 20:28:00,
2013-08-13 15:43:00,95.9,74.0,29.92,West,276,1.0,8.0,50,0.00,,,0.00,weatherlink.com 1.10,2013-08-13 20:43:00,
2013-08-13 15:58:00,95.0,75.0,29.91,WNW,291,0.0,8.0,52,0.00,,,0.00,weatherlink.com 1.10,2013-08-13 20:58:00,
2013-08-13 16:13:00,97.7,76.0,29.91,NW,312,2.0,8.0,50,0.00,,,0.00,weatherlink.com 1.10,2013-08-13 21:13:00,
2013-08-13 16:28:00,97.0,77.0,29.91,West,259,1.0,6.0,53,0.00,,,0.00,weatherlink.com 1.10,2013-08-13 21:28:00,
2013-08-13 16:43:00,95.5,77.0,29.90,NW,322,1.0,6.0,55,0.00,,,0.00,weatherlink.com 1.10,2013-08-13 21:43:00,
2013-08-13 16:58:00,94.4,77.0,29.90,South,177,6.0,9.0,57,0.00,,,0.00,weatherlink.com 1.10,2013-08-13 21:58:00,
2013-08-13 17:13:00,96.0,78.0,29.90,SSW,207,1.0,12.0,56,0.00,,,0.00,weatherlink.com 1.10,2013-08-13 22:13:00,
2013-08-13 17:28:00,96.7,78.0,29.90,WSW,242,1.0,8.0,55,0.00,,,0.00,weatherlink.com 1.10,2013-08-13 22:28:00,
2013-08-13 17:43:00,96.9,78.0,29.90,SE,126,0.0,9.0,55,0.00,,,0.00,weatherlink.com 1.10,2013-08-13 22:43:00,
2013-08-13 17:58:00,96.0,78.0,29.90,SW,221,1.0,7.0,56,0.00,,,0.00,weatherlink.com 1.10,2013-08-13 22:58:00,
2013-08-13 18:13:00,94.7,78.0,29.90,WNW,288,2.0,6.0,59,0.00,,,0.00,weatherlink.com 1.10,2013-08-13 23:13:00,
2013-08-13 18:28:00,94.1,78.0,29.90,SSE,150,1.0,11.0,59,0.00,,,0.00,weatherlink.com 1.10,2013-08-13 23:28:00,
2013-08-13 18:43:00,94.0,79.0,29.90,SW,231,0.0,8.0,61,0.00,,,0.00,weatherlink.com 1.10,2013-08-13 23:43:00,
2013-08-13 18:58:00,93.8,79.0,29.90,SSE,147,2.0,6.0,62,0.00,,,0.00,weatherlink.com 1.10,2013-08-13 23:58:00,
2013-08-13 19:13:00,93.5,79.0,29.91,West,280,2.0,3.0,62,0.00,,,0.00,weatherlink.com 1.10,2013-08-14 00:13:00,
2013-08-13 19:28:00,92.0,78.0,29.91,SE,132,0.0,8.0,63,0.00,,,0.00,weatherlink.com 1.10,2013-08-14 00:28:00,
2013-08-13 19:43:00,89.6,78.0,29.92,SSW,200,4.0,6.0,68,0.00,,,0.00,weatherlink.com 1.10,2013-08-14 00:43:00,
2013-08-13 19:58:00,87.5,78.0,29.92,SSW,204,1.0,5.0,74,0.00,,,0.00,weatherlink.com 1.10,2013-08-14 00:58:00,
2013-08-13 20:13:00,86.3,78.0,29.91,SW,228,0.0,6.0,76,0.00,,,0.00,weatherlink.com 1.10,2013-08-14 01:13:00,
2013-08-13 20:28:00,85.3,78.0,29.91,SSE,166,0.0,5.0,79,0.00,,,0.00,weatherlink.com 1.10,2013-08-14 01:28:00,
2013-08-13 20:43:00,84.8,78.0,29.91,SSE,166,0.0,4.0,80,0.00,,,0.00,weatherlink.com 1.10,2013-08-14 01:43:00,
2013-08-13 20:58:00,84.2,78.0,29.92,SSE,160,0.0,2.0,81,0.00,,,0.00,weatherlink.com 1.10,2013-08-14 01:58:00,
2013-08-13 21:13:00,83.7,78.0,29.92,West,266,0.0,3.0,83,0.00,,,0.00,weatherlink.com 1.10,2013-08-14 02:13:00,
2013-08-13 21:28:00,83.2,78.0,29.93,SSE,168,0.0,3.0,84,0.00,,,0.00,weatherlink.com 1.10,2013-08-14 02:28:00,
2013-08-13 21:43:00,83.1,78.0,29.93,South,190,0.0,3.0,84,0.00,,,0.00,weatherlink.com 1.10,2013-08-14 02:43:00,
2013-08-13 21:59:00,82.8,78.0,29.93,WSW,243,0.0,2.0,84,0.00,,,0.00,weatherlink.com 1.10,2013-08-14 02:59:00,
2013-08-13 22:14:00,82.7,78.0,29.95,ENE,70,6.0,6.0,85,0.00,,,0.00,weatherlink.com 1.10,2013-08-14 03:14:00,
2013-08-13 22:29:00,82.2,78.0,29.95,ENE,60,3.0,4.0,86,0.00,,,0.00,weatherlink.com 1.10,2013-08-14 03:29:00,
2013-08-13 22:44:00,82.0,78.0,29.95,East,98,1.0,3.0,87,0.00,,,0.00,weatherlink.com 1.10,2013-08-14 03:44:00,
2013-08-13 22:59:00,81.3,78.0,29.96,East,92,2.0,5.0,88,0.00,,,0.00,weatherlink.com 1.10,2013-08-14 03:59:00,
2013-08-13 23:14:00,81.0,77.0,29.95,East,91,2.0,2.0,88,0.00,,,0.00,weatherlink.com 1.10,2013-08-14 04:14:00,
2013-08-13 23:29:00,80.1,76.0,29.95,East,90,4.0,4.0,86,0.00,,,0.00,weatherlink.com 1.10,2013-08-14 04:29:00,
2013-08-13 23:44:00,79.4,75.0,29.95,NE,53,3.0,6.0,85,0.00,,,0.00,weatherlink.com 1.10,2013-08-14 04:44:00,
2013-08-13 23:59:00,78.7,74.0,29.96,NE,36,2.0,4.0,85,0.00,,,0.00,weatherlink.com 1.10,2013-08-14 04:59:00,